This is the latest recevied weather packets stored in our database for station/object K1FFK-1. If no packets are shown the sender has not sent any weather packets the latest 10 day(s).
| Time | Temp. | Humidity | Pressure | Rain* | Wind** | Luminosity | Snow |
|---|---|---|---|---|---|---|---|
| 1777703494 | 1.11° C | 100% | 1012.5 hPa | 0 mm | - | - | - |
| 1777702894 | 1.11° C | 100% | 1012.6 hPa | 0 mm | - | - | - |
| 1777702293 | 1.11° C | 100% | 1012.6 hPa | 0 mm | - | - | - |
| 1777701694 | 1.11° C | 100% | 1012.7 hPa | 0 mm | - | - | - |
| 1777701094 | 0.56° C | 100% | 1012.8 hPa | 0 mm | - | - | - |
| 1777700494 | 1.11° C | 100% | 1012.9 hPa | 0 mm | - | - | - |
| 1777699894 | 1.11° C | 100% | 1013.3 hPa | 0 mm | - | - | - |
| 1777699294 | 1.11° C | 100% | 1013.3 hPa | 0 mm | - | - | - |
| 1777698738 | 1.11° C | 100% | 1013.4 hPa | 0 mm | - | - | - |
| 1777698694 | 1.11° C | 100% | 1013.4 hPa | 0 mm | - | - | - |
| 1777698094 | 1.11° C | 99% | 1013.4 hPa | 0 mm | - | - | - |
| 1777697493 | 1.67° C | 98% | 1013.5 hPa | 0 mm | - | - | - |
| 1777696893 | 1.67° C | 97% | 1013.6 hPa | 0 mm | - | - | - |
| 1777696296 | 1.67° C | 95% | 1013.5 hPa | 0 mm | - | - | - |
| 1777695694 | 1.67° C | 94% | 1013.6 hPa | 0 mm | - | - | - |
| 1777695094 | 2.22° C | 91% | 1013.6 hPa | 0 mm | - | - | - |
| 1777694494 | 2.78° C | 88% | 1013.7 hPa | 0 mm | - | - | - |
| 1777693894 | 2.78° C | 84% | 1013.8 hPa | 0 mm | - | - | - |
| 1777693294 | 2.78° C | 82% | 1013.7 hPa | 0 mm | - | - | - |
| 1777692693 | 3.33° C | 79% | 1013.4 hPa | 0 mm | - | - | - |
| 1777692094 | 3.33° C | 75% | 1013.5 hPa | 0 mm | - | - | - |
| 1777691494 | 3.33° C | 74% | 1013.5 hPa | 0 mm | - | - | - |
| 1777690893 | 3.33° C | 73% | 1013.5 hPa | 0 mm | - | - | - |
| 1777690294 | 3.33° C | 73% | 1013.5 hPa | 0 mm | - | - | - |
| 1777689695 | 3.33° C | 73% | 1013.5 hPa | 0 mm | - | - | - |
* Rain latest hour (hover to see other rain measurements)
** Current wind speed in m/s (hover to see current wind gust speed)